Regional Weather Roundup
Issued by NWS

Home | Current Version | Previous Version | Graphics & Text | Print | Product List | Glossary Off
Versions: 1 2 3 4 5 6 7 8 9 10 11 12 13 14 15 16 17 18 19 20 21 22 23 24 25 26 27 28 29 30 31 32 33 34 35 36 37 38 39 40 41 42 43 44 45 46 47 48 49 50

000
ASUS43 KMKX 211211
RWRWI

WISCONSIN REGIONAL WEATHER ROUNDUP
NATIONAL WEATHER SERVICE MILWAUKEE/SULLIVAN WI
700 AM CDT SUN SEP 21 2014

NOTE: "FAIR" INDICATES FEW OR NO CLOUDS BELOW 12,000 FEET WITH NO
SIGNIFICANT WEATHER AND/OR OBSTRUCTIONS TO VISIBILITY.

WIZ001-002-006>008-014>016-023>028-211300-
NORTHWEST WISCONSIN

CITY           SKY/WX    TMP DP  RH WIND       PRES   REMARKS
SUPERIOR ARPT  CLOUDY    50  49  99 NW3       29.98R
6HR MIN TEMP:  49; 6HR MAX TEMP:  55; 6HR PCP:  0.04;

ASHLAND        CLOUDY    50  47  89 N6        29.95R
6HR MIN TEMP:  50; 6HR MAX TEMP:  54; 6HR PCP:  0.17;

HAYWARD        CLOUDY    50  48  93 N6        29.95R
6HR MIN TEMP:  50; 6HR MAX TEMP:  54; 6HR PCP:  0.12;

SIREN          CLOUDY    52  50  95 N6        29.97R
6HR MIN TEMP:  50; 6HR MAX TEMP:  52; 6HR PCP:  0.04;

RICE LAKE      RAIN      53  50  91 NW8G16    29.94R
6HR MIN TEMP:  51; 6HR MAX TEMP:  54;

LADYSMITH      CLOUDY    53  50  92 N13       29.90R
6HR MIN TEMP:  53; 6HR MAX TEMP:  55; 6HR PCP:  0.07;

EAU CLAIRE     CLOUDY    53  50  89 NW14      29.89R
6HR MIN TEMP:  52; 6HR MAX TEMP:  56; 6HR PCP: TRACE;

MENOMONIE      LGT RAIN  55  49  83 NW18      29.91R
6HR MIN TEMP:  54; 6HR MAX TEMP:  57;

NEW RICHMOND   CLOUDY    51  50  96 NW12G17   29.97R
6HR MIN TEMP:  51; 6HR MAX TEMP:  55; 6HR PCP:  0.03;

OSCEOLA        CLOUDY    52  52 100 NW9G17    30.01R
6HR MIN TEMP:  52; 6HR MAX TEMP:  55; 6HR PCP:  0.05;

$$

WIZ003>005-009-010-017-018-211300-
NORTH CENTRAL WISCONSIN

CITY           SKY/WX    TMP DP  RH WIND       PRES   REMARKS
WOODRUFF       CLOUDY    52  49  91 N15G21    29.86R
6HR MIN TEMP:  52; 6HR MAX TEMP:  55; 6HR PCP:  0.08;

RHINELANDER    CLOUDY    51  49  92 N8        29.84R
6HR MIN TEMP:  51; 6HR MAX TEMP:  52; 6HR PCP:  0.18;

EAGLE RIVER    HVY RAIN  49  49  99 N15G22    29.83R
6HR MIN TEMP:  49; 6HR MAX TEMP:  53; 6HR PCP:  0.42;

LAND O LAKES   CLOUDY    48  46  93 N15G24    29.86R
6HR MIN TEMP:  48; 6HR MAX TEMP:  53; 6HR PCP:  0.11;

PHILLIPS       DRIZZLE   51  49  95 N13G18    29.87R
6HR MIN TEMP:  51; 6HR MAX TEMP:  53; 6HR PCP:  0.17;

TOMAHAWK       LGT RAIN  52  50  95 CALM      29.83R
6HR MIN TEMP:  51; 6HR MAX TEMP:  52; 6HR PCP:  0.34;

MEDFORD        DRIZZLE   53  51  95 N10       29.83R
6HR MIN TEMP:  50; 6HR MAX TEMP:  53; 6HR PCP:  0.13;

MERRILL        RAIN      53  52  98 N6        29.81R
6HR MIN TEMP:  52; 6HR MAX TEMP:  54; 6HR PCP:  0.13;

$$

WIZ029-030-035-036-043>047-211300-
CENTRAL WISCONSIN

CITY           SKY/WX    TMP DP  RH WIND       PRES   REMARKS
WAUSAU         LGT RAIN  53  52  96 N8        29.79R
6HR MIN TEMP:  53; 6HR MAX TEMP:  55; 6HR PCP:  0.18;

MOSINEE        LGT RAIN  54  54 100 NW12      29.80R
MARSHFIELD     CLOUDY    54  52  93 NW10      29.82R
6HR MIN TEMP:  53; 6HR MAX TEMP:  56; 6HR PCP:  0.02;

STEVENS POINT  DRIZZLE   51  50  97 NW7       29.80R
6HR MIN TEMP:  50; 6HR MAX TEMP:  54; 6HR PCP:  0.08;

WAUPACA        DRIZZLE   56  54  94 NW9       29.76R
6HR MIN TEMP:  56; 6HR MAX TEMP:  58;

WAUTOMA        LGT RAIN  54  52  93 NW13      29.78R FOG
6HR MIN TEMP:  54; 6HR MAX TEMP:  59; 6HR PCP: TRACE;

WISC RAPIDS    CLOUDY    53  51  93 NW8       29.81R
6HR MIN TEMP:  53; 6HR MAX TEMP:  56; 6HR PCP:  0.03;

CAMP DOUGLAS   DRIZZLE   53  53 100 NW15      29.83R
6HR MIN TEMP:  53; 6HR MAX TEMP:  56; 6HR PCP: TRACE;

$$

WIZ011>013-019>022-031-037>040-048>050-211300-
NORTHEAST WISCONSIN

CITY           SKY/WX    TMP DP  RH WIND       PRES   REMARKS
ANTIGO         LGT RAIN  52  50  95 N12       29.79R
6HR MIN TEMP:  51; 6HR MAX TEMP:  52; 6HR PCP:  0.04;

STURGEON BAY   CLOUDY    55  50  82 N15       29.70R
6HR MIN TEMP:  55; 6HR MAX TEMP:  57;

GREEN BAY      LGT RAIN  55  54  96 N10       29.72R
6HR MIN TEMP:  55; 6HR MAX TEMP:  57; 6HR PCP:  0.25;

MANITOWOC      RAIN      56  54  93 N14       29.70R
6HR MIN TEMP:  56; 6HR MAX TEMP:  58; 6HR PCP:  0.04;

APPLETON       CLOUDY    54  54 100 NW10G20   29.74R
CLINTONVILLE   LGT RAIN  55  52  88 N7        29.74R
OSHKOSH        CLOUDY    55  52  89 NW12G21   29.73R
6HR MIN TEMP:  55; 6HR MAX TEMP:  58; 6HR PCP: TRACE;

$$

WIZ032>034-041-042-053>061-211300-
SOUTHWEST WISCONSIN

CITY           SKY/WX    TMP DP  RH WIND       PRES   REMARKS
LA CROSSE      CLOUDY    57  48  72 NW18G28   29.88R
6HR MIN TEMP:  57; 6HR MAX TEMP:  61;

SPARTA         CLOUDY    55  47  74 NW14      29.87R
6HR MIN TEMP:  53; 6HR MAX TEMP:  57;

VIROQUA        CLOUDY    53  48  83 NW13G23   29.87R
6HR MIN TEMP:  53; 6HR MAX TEMP:  55;

BOSCOBEL       PTCLDY    57  48  72 NW9       29.87R
6HR MIN TEMP:  57; 6HR MAX TEMP:  60;

PRAIRIE DU CHI MOCLDY    56  49  75 NW8       29.88R
6HR MIN TEMP:  55; 6HR MAX TEMP:  57;

PLATTEVILLE    FAIR      54  51  90 W9        29.87R
6HR MIN TEMP:  53; 6HR MAX TEMP:  58;

$$

WIZ056-057-062-063-064-067-068-211300-
SOUTH CENTRAL WISCONSIN

CITY           SKY/WX    TMP DP  RH WIND       PRES   REMARKS
BARABOO/DELLS  CLOUDY    55  47  74 NW12G17   29.81R
6HR MIN TEMP:  54; 6HR MAX TEMP:  56;

LONE ROCK      CLOUDY    60  48  64 W15       29.83R
6HR MIN TEMP:  59; 6HR MAX TEMP:  63;

WATERTOWN      CLOUDY    55  51  87 NW17G30   29.77R
6HR MIN TEMP:  53; 6HR MAX TEMP:  60;

MADISON        CLOUDY    56  49  77 NW10G18   29.79R
6HR MIN TEMP:  56; 6HR MAX TEMP:  61;

MIDDLETON      CLOUDY    56  51  82 W14       29.80R
6HR MIN TEMP:  56; 6HR MAX TEMP:  61;

MONROE         CLEAR     54  50  87 W14G20    29.82R
JANESVILLE     MOCLDY    55  50  82 W13       29.80R
$$

WIZ051-052-058>065-066-070>072-211300-
SOUTHEAST WISCONSIN

CITY           SKY/WX    TMP DP  RH WIND       PRES   REMARKS
MILWAUKEE      MOCLDY    57  49  74 W14       29.73R
6HR MIN TEMP:  57; 6HR MAX TEMP:  63;

WAUKESHA       CLOUDY    54  50  87 W15       29.75R
MILWAUKEE/TIMM CLOUDY    55  48  76 W16G28    29.73R
RACINE         MOCLDY    56  50  80 W8        29.76R
6HR MIN TEMP:  56; 6HR MAX TEMP:  63;

BURLINGTON     CLOUDY    54  50  87 W9G21     29.77R
6HR MIN TEMP:  53; 6HR MAX TEMP:  60;

KENOSHA        PTCLDY    56  51  84 W14       29.76R
6HR MIN TEMP:  55; 6HR MAX TEMP:  64;

FOND DU LAC    CLOUDY    55  50  83 NW16      29.73R
6HR MIN TEMP:  55; 6HR MAX TEMP:  59; 6HR PCP: TRACE;

SHEBOYGAN      LGT RAIN  55  51  86 W12G20    29.70R
6HR MIN TEMP:  55; 6HR MAX TEMP:  58; 6HR PCP: TRACE;

WEST BEND      CLOUDY    54  46  76 W15G23    29.72R
JUNEAU         CLOUDY    54  50  87 W9G22     29.77R
6HR MIN TEMP:  53; 6HR MAX TEMP:  58;

$$

LSZ147-162-211300-
LAKE SUPERIOR

STATION/POSITION TIME  TEMP    WIND        PRES    WAVE
                       AIR SEA DIR/SP/G            HT/PER
                 (UTC) (F)     (DEG/KT/KT) (MB)    (FT/S)
W MID LAKE BUOY  1150   48 47   30/ 16/ 19 1013.0R   3/ 5
DEVILS ISLAND    1200   52     340/ 10/ 14 1014.6R
PORT WING        1100   51      50/  5/  9 1013.5
SAXON HARBOR     1101   53      50/ 15/ 20 1012.5R
$$

LMZ867-665-643>646-211300-
LAKE MICHIGAN

STATION/POSITION TIME  TEMP    WIND        PRES    WAVE
                       AIR SEA DIR/SP/G            HT/PER
                 (UTC) (F)     (DEG/KT/KT) (MB)    (FT/S)
N MID LAKE BUOY  1150   55 58  360/ 19/ 23 1003.3R   3/ 4
NORTHPORT PIER   1104   56     340/ 21/ 25 1004.1R
SISTER BAY       1112           10/ 22/ 24   N/A
KEWAUNEE LAKESHO 1100   55     320/  3/  5 1003.5R
SHEBOYGAN LAKESH 1200   56 53  280/ 15/ 20 1005.6R
PORT WASHINGTON  1140   57     290/ 11/ 15 1006.4R
ATWATER BUOY     1200   57     260/ 16/ 21 1007.6R
MILWAUKEE LAKESH 1100   58     270/ 12/ 17   N/A
S MID LAKE BUOY  1150   60 63  260/ 23/ 27 1006.2R   5/ 5
KENOSHA   LAKESH 1200   58     260/ 15/ 20 1007.8R
$$

TC  - TEMPERATURE IN CELSIUS
VSB - VISIBILITY IN STATUTE MILES
WCI - WIND CHILL INDEX
HX  - HEAT INDEX



USA.gov is the U.S. government's official web portal to all federal, state and local government web resources and services.